Current weather by "City, St" or "zip code"  
 

Current Conditions: Gillespie Field Airport, CA

Overcast


66.0 F

Last Updated on Oct 24 2020, 7:55 pm PDT
Humidity: 73%
Wind Speed: W 6.9 mph
Barometer 29.93 in
Dewpoint: 57.2 F
Visibility: 10.00 mi
Precip: --
Heat Index: NA
Wind Chill: NA
Current conditions at:

Gillespie Field Airport, CA (KSEE)

Lat: 32.82738 Lon: 116.97369

Local Radar Image active severe weather and emergency alerts image image weather storm and storm spotter reports image weather observation monitoring service image
Local
Radar
Active
Alerts
Storm Reports Obs
Monitoring

Sign-up For Email & Text Message Weather Alert Notification Services



Advertise Here

Observation History for Gillespie Field Airport, CA


Time Wind
(mph)
Vis
(mi)
Weather Precip (in) Temperature (F) Relative
Humidity
Wind
Chill
(F)
Heat
Index
(F)
Pressure
Air Dwpt altimeter
(in)
sea level
(mb)
Rmks
7:55 pm PDT W 6.9 10.00 Overcast -- 66.0 57.2 73% NA NA 29.93 M
6:55 pm PDT W 8.1 10.00 Overcast -- 66.0 57.2 73% NA NA 29.92 M
5:47 pm PDT W 10.4 10.00 Overcast -- 68.0 57.2 69% NA NA 29.93 M
4:47 pm PDT W 10.4 10.00 Mostly Cloudy -- 70.0 57.2 64% NA NA 29.93 M
3:47 pm PDT W 11.5 10.00 Mostly Cloudy -- 72.0 55.4 57% NA NA 29.93 M
2:47 pm PDT SW 5.8 10.00 Mostly Cloudy -- 72.0 57.2 61% NA NA 29.93 M
1:47 pm PDT W 9.2 10.00 Mostly Cloudy -- 72.0 57.2 61% NA NA 29.96 M
12:47 pm PDT S 5.8 10.00 Overcast -- 72.0 55.4 57% NA NA 29.98 M
11:47 am PDT NW 5.8 10.00 Mostly Cloudy -- 70.0 55.4 60% NA NA 30.01 M
10:47 am PDT NW 5.8 10.00 Overcast -- 70.0 53.6 57% NA NA 30.02 M
9:47 am PDT N 0.0 10.00 Overcast -- 68.0 55.4 64% NA NA 30.03 M
8:47 am PDT N 0.0 10.00 Overcast -- 66.0 55.4 68% NA NA 30.02 M
7:47 am PDT N 3.5 10.00 Overcast -- 66.0 55.4 68% NA NA 30.02 M
6:47 am PDT N 0.0 9.00 Overcast -- 84.0 55.4 37% NA 83 30.01 M
5:55 am PDT N 0.0 10.00 Overcast -- 66.0 55.4 68% NA NA 30.00 M
4:55 am PDT N 0.0 10.00 Overcast -- 66.0 55.4 68% NA NA 29.99 M
4:35 am PDT N 0.0 10.00 Overcast -- 66.0 55.4 68% NA NA 29.98 M
3:55 am PDT N 0.0 10.00 Overcast -- 66.0 55.4 68% NA NA 29.98 M
2:55 am PDT W 3.5 10.00 Overcast -- 66.0 55.4 68% NA NA 29.99 M
1:55 am PDT N 0.0 10.00 Overcast -- 66.0 55.4 68% NA NA 29.99 M
12:55 am PDT N 0.0 10.00 Overcast -- 66.0 57.2 73% NA NA 30.00 M
11:55 pm PDT N 0.0 10.00 Overcast -- 66.0 57.2 73% NA NA 30.01 M
10:55 pm PDT NW 4.6 10.00 Overcast -- 66.0 57.2 73% NA NA 30.01 M
9:55 pm PDT N 4.6 10.00 Overcast -- 66.0 55.4 68% NA NA 29.99 M

Regional Weather Observation


San Diego, Miramar MCAS/Mitscher Field Airport, CA (KNKX)

Mostly Cloudy
65.0 F

San Diego, Montgomery Field, CA (KMYF)

Overcast
67.0 F

Oceanside, Oceanside Municipal Airport, CA (KOKB)

Overcast
67.0 F

Oceanside, Camp Pendleton, Marine Corps Air Station, CA (KNFG)

A Few Clouds
68.0 F

San Diego International Airport, CA (KSAN)

Overcast
69.0 F

Ramona, Ramona Airport, CA (KRNM)

Overcast
62.0 F